Temperature
18 18 18 18 18 18 18 18 18 18 18 18 18 18 18 18 18 18 18 18 18 18 18 18 18 18 17 17 17 17 17 17 17 17 17 17 16 16 16 16 16 16 16
18 18 18 18 18 18 18 18 18 18 18 18 18 18 18 18 18 18 18 18 18 18 18 18 18 18 17 17 17 17 17 17 17 17 16 16 16 16 16 16 16 16 16
18 18 18 18 18 18 18 18 18 18 18 18 18 18 18 18 18 18 18 18 18 18 18 18 18 18 17 17 17 17 17 17 17 17 17 16 16 16 16 16 16 16 16
18 18 18 18 18 18 18 18 18 18 18 18 18 18 18 18 18 18 18 18 18 18 18 18 18 18 17 17 17 17 17 17 17 17 17 16 16 16 16 16 16 16 16
18 18 18 18 18 18 18 18 18 18 18 18 18 18 18 18 18 18 18 18 18 18 18 18 18 17 17 17 17 17 17 17 17 17 16 16 16 16 16 16 16 16 16
18 19 19 18 18 18 18 18 18 18 18 18 18 18 18 18 18 18 18 18 18 18 18 18 18 18 17 17 17 17 17 17 17 17 17 16 16 16 16 16 16 16 16
19 19 19 18 18 18 18 18 18 18 18 18 18 18 18 18 18 18 18 18 18 18 18 18 18 18 18 17 17 17 17 17 17 17 17 17 16 16 16 16 16 16 16
19 19 19 19 18 18 18 18 18 18 18 18 18 18 18 18 18 18 18 18 18 18 18 18 18 18 17 17 17 17 17 17 17 17 17 16 16 16 16 16 16 16 16
19 19 19 18 18 18 18 18 18 18 18 18 18 18 17 17 18 18 18 18 18 18 18 18 18 17 17 17 17 17 17 17 17 17 17 17 16 16 16 16 16 16 16
19 19 18 18 18 18 18 18 18 18 18 18 18 18 17 17 17 17 18 18 18 18 18 18 17 17 17 17 17 17 17 17 17 17 17 17 16 16 16 16 16 16 16
19 18 18 18 18 18 18 18 18 18 18 18 18 18 17 17 17 17 17 18 18 18 18 17 17 17 17 17 17 17 17 17 17 17 17 17 16 16 16 16 16 16 16
19 19 18 18 18 18 18 18 18 18 18 18 18 17 17 17 17 17 17 17 17 17 17 17 17 17 17 17 17 17 17 17 17 17 17 17 16 16 16 16 16 16 16
19 19 19 19 18 18 18 18 18 18 18 18 18 17 17 17 17 17 17 17 17 17 17 17 17 17 17 17 17 17 17 17 17 17 16 17 16 16 16 16 16 16 16
19 19 19 19 18 18 18 18 18 18 18 18 17 17 17 17 17 17 17 17 16 16 17 17 17 17 17 17 17 17 17 17 17 16 16 16 16 16 16 16 16 16 15
19 19 19 18 18 18 18 18 18 18 18 18 18 17 17 17 17 17 17 17 16 16 16 17 17 17 16 16 16 16 16 16 16 16 16 16 16 16 16 16 16 15 15
19 19 19 18 18 18 18 18 18 18 18 18 18 17 17 17 17 17 17 16 16 16 16 16 16 16 16 16 16 16 16 16 16 16 16 16 16 16 15 15 15 15 15
19 18 18 18 18 18 18 18 18 18 18 18 17 17 17 17 17 17 17 16 16 16 16 16 16 16 16 16 16 16 16 16 16 16 16 15 15 15 15 15 15 15 15
18 18 18 18 18 18 18 18 18 18 18 17 17 17 17 17 17 17 16 16 16 16 16 16 16 16 16 16 16 16 16 15 15 15 15 15 15 15 15 15 15 15 15
18 18 18 18 18 18 18 18 17 17 17 17 17 17 17 16 16 16 16 16 16 16 15 15 15 15 15 15 15 15 15 15 15 15 15 15 15 15 15 15 15 14 14
18 18 18 18 18 18 18 18 17 17 17 17 17 16 16 16 16 16 16 16 15 15 15 15 15 15 15 15 15 15 15 15 15 15 14 14 14 14 14 14 14 14 14
18 18 18 18 18 18 17 17 17 17 17 16 16 16 16 16 16 16 16 15 15 15 15 15 15 15 14 14 14 14 14 14 14 14 14 14 14 14 14 14 14 14 14
18 18 18 18 17 17 17 17 17 17 16 16 16 16 16 16 16 15 15 15 15 15 15 14 14 14 14 14 14 14 14 14 13 14 13 14 14 14 14 13 13 13 13
18 17 17 17 17 17 17 17 17 16 16 16 16 16 16 15 15 15 15 15 15 14 14 14 14 14 14 14 14 13 13 13 13 13 13 13 13 13 13 13 13 13 13
17 17 17 17 17 17 17 17 16 16 16 16 15 15 15 15 15 15 15 14 14 14 14 14 14 14 14 13 13 13 13 13 13 13 13 13 13 13 13 13 13 13 13
17 17 17 16 16 16 16 16 16 16 15 15 15 15 15 15 15 14 14 14 14 14 14 13 13 13 13 13 13 12 12 12 12 12 12 12 12 12 12 12 12 12 12
17 16 16 16 16 16 16 16 15 15 15 15 15 14 14 14 14 14 14 14 14 14 13 13 13 13 13 13 12 12 12 12 12 12 12 12 12 12 12 12 12 12 12
Wind_Speed
4 4 4 5 5 5 4 4 4 4 3 4 3 4 5 6 8 9 10 13 15 15 15 14 13 12 12 12 12 11 12 11 10 10 10 9 9 9 9 10 10 9 8
5 4 3 3 4 5 6 5 4 3 2 1 1 3 4 5 7 8 9 11 13 13 14 14 13 12 12 13 12 12 12 12 11 11 11 10 10 9 10 10 10 10 9
7 5 3 3 4 5 5 4 2 1 0 0 0 1 3 4 5 7 8 8 10 12 13 13 12 12 12 12 12 12 12 12 12 12 12 12 11 11 10 10 10 10 10
9 5 3 3 4 3 2 2 1 1 0 0 0 1 1 2 4 5 7 8 8 9 11 13 12 12 12 12 12 13 13 13 13 13 13 13 13 12 12 11 11 10 10
8 6 4 3 3 2 2 2 2 2 1 0 1 1 1 1 2 4 5 7 8 9 10 11 13 13 13 13 12 13 13 14 14 14 14 14 13 13 12 12 12 12 11
8 6 4 3 3 2 1 1 2 1 2 1 0 1 1 2 1 2 4 5 7 9 9 9 9 10 12 13 13 13 14 14 14 14 14 14 14 13 13 13 13 12 12
7 5 3 3 2 2 2 2 2 1 1 1 2 2 2 2 2 2 2 3 4 6 8 8 8 8 8 11 13 14 14 14 14 14 14 14 14 14 14 13 13 13 13
7 6 4 3 3 3 2 2 2 1 0 1 2 1 2 3 3 2 2 3 3 3 4 6 7 8 8 8 10 13 14 14 14 14 14 15 15 15 15 14 14 14 14
7 6 5 4 3 3 3 3 3 3 2 1 1 3 2 2 2 3 2 2 2 2 2 3 5 8 8 8 9 11 14 15 15 14 14 14 14 15 15 15 15 15 14
6 6 6 5 4 4 4 4 3 3 3 2 1 1 2 3 1 2 3 2 2 2 2 2 3 5 8 8 10 12 13 14 15 15 14 13 13 14 14 14 14 14 14
5 6 6 5 5 4 4 4 3 3 3 3 2 2 1 1 2 2 3 3 3 2 2 2 2 4 6 7 8 10 12 13 14 14 14 13 13 13 13 13 13 14 14
3 5 5 5 5 4 4 4 4 4 3 3 3 2 3 2 2 3 3 3 3 3 3 2 3 3 5 6 8 9 10 11 12 13 12 12 11 11 11 11 12 12 12
4 5 5 4 4 4 4 4 4 3 3 3 3 3 3 3 3 3 2 2 3 3 2 2 3 3 4 5 6 8 7 9 9 10 10 11 11 10 10 10 10 11 11
6 6 6 5 5 5 4 4 3 3 3 3 3 3 2 2 3 3 3 2 2 3 2 3 2 2 3 3 5 6 5 6 8 9 9 10 10 10 10 9 9 10 10
6 6 6 6 5 5 5 4 3 4 3 3 3 3 2 2 2 2 3 3 3 2 4 4 3 3 3 3 4 4 4 5 6 8 9 9 9 9 9 9 9 9 10
5 6 6 6 5 5 4 4 3 3 3 3 3 3 2 2 2 2 2 2 3 4 4 4 4 3 3 2 4 4 5 5 7 8 10 10 9 9 9 8 8 9 9
6 6 6 6 6 5 5 5 5 4 4 3 3 3 3 3 2 2 2 2 2 3 4 4 2 2 2 2 1 3 4 3 4 8 9 9 9 8 8 8 9 9 9
6 6 6 6 6 5 5 6 6 5 5 4 4 3 4 3 2 2 2 2 2 3 3 4 3 2 2 3 2 2 2 3 4 6 8 9 8 8 8 8 8 8 8
6 5 6 6 6 5 5 5 5 5 5 5 5 5 4 3 3 3 3 3 2 2 2 3 3 2 2 2 2 2 2 2 3 4 5 6 7 8 9 9 8 8 8
6 6 6 6 6 5 5 5 5 5 5 5 5 5 4 5 5 5 4 3 3 2 2 2 2 2 2 2 1 1 2 2 2 2 2 3 4 5 7 8 8 8 8
8 6 6 5 5 5 5 5 5 5 4 4 3 4 4 4 5 4 3 3 3 2 2 2 2 2 2 1 2 2 2 2 2 2 1 2 2 2 3 6 7 8 9
6 5 6 5 5 5 6 6 5 4 4 4 4 3 3 2 3 3 3 4 4 4 3 3 3 3 4 3 2 2 2 1 2 2 1 3 2 3 3 4 6 8 8
6 6 6 5 5 5 6 6 6 4 4 4 4 4 3 2 1 1 0 0 1 2 4 4 4 4 4 4 3 2 2 2 3 3 1 3 2 3 3 4 6 7 6
6 6 6 5 4 4 5 5 5 4 3 4 4 4 4 3 2 3 2 1 1 1 2 2 3 4 4 3 4 4 4 2 2 2 2 2 2 2 3 3 5 6 6
5 5 5 6 5 4 5 5 4 3 2 2 2 3 4 4 4 5 3 2 0 2 2 0 1 2 3 3 3 2 1 1 1 2 1 2 1 2 2 3 4 4 4
4 5 4 5 5 5 5 5 5 3 2 2 1 1 3 4 4 5 4 3 2 2 1 2 2 2 1 1 2 3 3 2 1 2 2 2 1 0 1 3 2 3 3
Wind_Direction
167 173 183 192 201 210 209 218 230 239 249 249 228 185 175 175 181 184 191 194 195 199 197 197 199 200 199 200 202 202 202 205 207 206 208 210 211 212 209 209 209 211 212
168 166 173 185 201 213 216 212 214 218 222 203 187 169 167 172 187 190 192 196 201 203 202 203 205 205 204 205 206 207 208 210 211 211 213 213 215 215 214 214 214 216 218
172 168 168 180 207 213 209 206 210 199 198 139 166 168 164 178 185 186 188 197 206 209 210 210 209 208 208 209 209 211 213 214 215 214 215 217 218 218 217 218 219 220 220
169 164 163 181 199 189 178 163 149 131 90 72 316 260 178 178 187 190 191 200 205 208 214 217 216 217 218 218 217 218 219 220 220 218 218 218 219 220 221 223 223 223 223
167 163 167 182 179 158 162 171 135 143 152 187 263 256 235 208 209 199 197 206 213 215 217 223 225 224 224 225 223 224 224 224 224 222 221 221 221 222 224 224 225 224 225
170 162 166 175 158 139 140 133 135 143 159 175 293 356 290 252 235 211 213 208 212 217 219 221 222 226 229 231 229 228 229 228 227 225 224 224 225 225 224 225 227 227 227
175 167 161 157 153 149 159 157 141 132 126 97 74 5 332 293 252 239 224 211 219 215 209 211 210 214 225 232 232 233 233 232 229 227 227 227 227 226 224 225 227 227 228
180 180 165 160 158 138 133 147 137 128 166 123 129 96 348 339 322 276 253 223 227 209 205 211 210 214 219 224 230 231 233 235 234 233 232 231 229 229 227 228 228 228 229
183 178 171 162 159 157 177 189 170 158 186 235 168 150 160 241 304 321 307 276 245 231 234 210 215 223 223 225 229 233 235 236 237 239 239 238 232 229 230 231 231 230 230
184 182 178 173 169 173 186 196 183 178 169 200 243 210 192 176 185 313 322 312 285 251 248 240 227 229 230 227 230 233 234 234 238 241 243 241 235 233 233 233 232 232 231
193 187 181 175 176 179 184 191 188 185 180 185 198 203 203 196 187 190 272 302 312 279 251 240 233 232 232 229 233 236 235 233 235 238 243 240 236 236 234 233 233 234 233
202 197 185 180 182 185 189 194 190 185 190 187 192 188 181 184 200 191 227 259 276 282 271 255 243 235 234 232 236 241 235 233 232 234 238 235 235 236 234 236 237 239 238
206 208 199 187 188 193 191 185 180 187 188 187 199 207 203 206 194 184 198 243 265 280 287 280 256 236 247 236 239 241 233 228 223 224 227 232 232 233 235 237 240 241 241
207 203 195 194 194 193 195 182 181 192 189 198 209 205 213 227 202 191 188 195 262 290 293 272 290 253 250 242 239 231 224 219 214 215 221 225 229 232 231 231 235 239 241
204 198 195 194 199 199 192 178 194 203 195 205 213 205 210 230 212 206 192 184 189 251 274 261 258 268 249 240 245 227 222 224 218 217 220 220 221 225 225 227 233 236 238
200 189 190 192 195 194 188 187 198 205 203 224 216 202 214 228 224 211 199 204 198 204 243 252 241 249 250 256 249 226 228 232 226 225 225 224 226 228 228 229 229 232 234
191 189 190 192 198 201 196 192 201 200 203 222 224 204 223 220 214 226 212 206 212 201 239 272 264 258 244 256 270 226 236 233 240 236 230 228 229 232 233 231 229 230 236
198 195 191 193 198 197 193 194 203 203 202 211 219 214 234 230 224 224 209 218 225 213 211 251 272 269 248 242 250 248 237 237 234 241 232 229 229 231 234 233 234 233 236
201 198 192 195 198 197 197 200 201 204 209 214 213 213 227 214 225 227 217 223 231 232 207 220 259 262 264 268 277 284 264 258 251 251 240 233 231 233 234 233 235 235 236
197 198 198 200 199 198 200 202 201 208 215 220 219 215 216 212 216 218 223 223 225 230 230 227 251 268 273 281 249 275 294 287 277 274 262 239 231 234 234 234 236 238 241
203 198 194 200 204 203 207 201 203 207 211 218 228 227 226 221 219 216 220 221 213 220 231 232 244 258 263 270 251 241 255 274 281 258 272 274 244 248 244 240 240 238 236
202 193 195 199 206 222 212 200 192 203 210 212 221 232 234 227 223 218 215 214 199 199 217 226 234 232 243 238 235 231 220 253 277 264 226 268 241 251 255 249 251 245 240
198 195 198 198 210 218 196 195 200 201 207 213 214 213 226 230 197 143 115 61 241 223 209 203 217 228 225 222 203 220 234 232 242 241 201 256 262 263 270 266 261 251 244
193 191 193 194 197 209 193 198 202 209 215 220 218 210 201 208 205 161 143 120 287 284 255 224 209 220 218 211 200 205 214 228 269 267 184 219 278 279 292 283 275 264 251
189 187 190 193 194 213 200 194 190 202 211 219 214 208 195 200 201 171 154 162 310 325 336 204 195 211 216 211 186 150 153 134 291 284 228 180 243 289 291 278 289 285 270
192 184 190 197 194 206 201 189 183 190 200 220 228 232 216 201 197 182 175 174 193 251 305 13 4 355 352 224 198 180 182 184 213 258 248 181 213 83 314 288 283 287 281
Height
1549 1551 1552 1554 1555 1556 1557 1558 1558 1559 1560 1560 1561 1561 1562 1562 1563 1564 1564 1565 1565 1565 1565 1565 1565 1565 1565 1566 1566 1567 1567 1568 1568 1569 1569 1570 1570 1570 1571 1571 1571 1572 1572
1550 1551 1552 1554 1555 1556 1557 1557 1558 1559 1559 1560 1560 1561 1561 1562 1562 1563 1563 1564 1564 1564 1564 1564 1564 1564 1564 1565 1565 1565 1566 1567 1567 1567 1568 1568 1569 1569 1569 1570 1570 1570 1571
1551 1552 1553 1554 1555 1556 1557 1558 1558 1559 1559 1560 1560 1561 1561 1561 1561 1562 1563 1563 1563 1563 1563 1563 1563 1563 1563 1564 1564 1564 1565 1565 1566 1566 1566 1567 1567 1567 1568 1568 1568 1569 1569
1551 1552 1553 1554 1555 1556 1557 1557 1558 1558 1558 1559 1559 1560 1560 1560 1561 1561 1561 1562 1562 1562 1562 1562 1562 1562 1562 1562 1562 1563 1563 1563 1564 1564 1565 1565 1565 1565 1566 1566 1567 1567 1567
1551 1552 1553 1554 1555 1556 1556 1557 1557 1557 1558 1558 1558 1558 1559 1559 1559 1559 1559 1560 1560 1561 1561 1561 1561 1561 1561 1561 1561 1561 1561 1561 1562 1562 1562 1563 1563 1563 1564 1564 1565 1565 1565
1551 1552 1553 1554 1555 1555 1556 1556 1556 1556 1557 1557 1557 1557 1557 1557 1558 1558 1558 1558 1558 1559 1559 1559 1559 1559 1559 1559 1559 1559 1559 1559 1559 1559 1560 1560 1560 1561 1561 1562 1562 1563 1563
1551 1552 1553 1554 1555 1555 1555 1555 1555 1556 1556 1556 1556 1556 1556 1556 1556 1557 1556 1557 1557 1557 1557 1557 1557 1557 1557 1557 1557 1556 1556 1556 1556 1556 1556 1557 1557 1558 1558 1559 1559 1560 1560
1551 1552 1552 1553 1554 1554 1554 1554 1554 1555 1555 1555 1555 1555 1555 1556 1555 1555 1555 1555 1555 1555 1555 1555 1555 1555 1555 1554 1554 1554 1553 1553 1553 1553 1553 1554 1554 1554 1555 1556 1556 1557 1557
1550 1551 1551 1552 1553 1553 1553 1553 1554 1554 1554 1555 1555 1555 1554 1554 1553 1553 1553 1554 1553 1553 1553 1553 1552 1552 1552 1552 1551 1551 1551 1550 1550 1550 1550 1550 1551 1551 1552 1553 1553 1553 1554
1548 1549 1550 1551 1552 1552 1552 1552 1553 1553 1553 1553 1554 1554 1554 1553 1553 1552 1552 1552 1552 1552 1551 1551 1550 1550 1549 1549 1548 1548 1548 1547 1547 1547 1547 1547 1547 1548 1548 1549 1549 1550 1550
1547 1548 1548 1549 1550 1551 1551 1551 1551 1552 1552 1552 1552 1552 1552 1552 1552 1551 1550 1550 1550 1550 1549 1549 1548 1547 1547 1546 1546 1546 1545 1545 1545 1544 1544 1544 1544 1545 1545 1545 1545 1546 1546
1545 1546 1547 1548 1548 1549 1549 1549 1549 1550 1550 1550 1550 1550 1550 1550 1549 1549 1548 1548 1547 1548 1547 1547 1546 1545 1544 1544 1543 1543 1543 1542 1542 1542 1541 1541 1541 1541 1542 1542 1542 1542 1542
1543 1544 1545 1546 1546 1547 1547 1547 1547 1547 1548 1548 1548 1548 1547 1548 1548 1547 1547 1546 1545 1545 1544 1544 1544 1543 1542 1542 1541 1540 1540 1539 1539 1539 1539 1539 1539 1539 1539 1539 1539 1539 1539
1541 1542 1543 1544 1544 1545 1545 1545 1545 1545 1545 1545 1545 1545 1545 1545 1545 1545 1545 1544 1543 1542 1541 1541 1541 1541 1540 1539 1539 1538 1537 1537 1537 1536 1536 1536 1536 1536 1536 1535 1535 1535 1535
1539 1540 1541 1541 1542 1542 1543 1543 1543 1543 1543 1543 1543 1543 1543 1542 1542 1542 1542 1542 1542 1540 1538 1538 1538 1538 1538 1537 1536 1535 1534 1534 1533 1533 1533 1533 1533 1533 1533 1532 1532 1532 1531
1536 1537 1537 1538 1539 1539 1540 1540 1540 1541 1541 1541 1541 1541 1540 1540 1539 1539 1539 1539 1539 1538 1536 1535 1535 1535 1535 1534 1533 1532 1532 1531 1530 1530 1530 1530 1530 1529 1529 1529 1528 1528 1528
1533 1533 1534 1535 1536 1536 1537 1537 1538 1538 1538 1538 1538 1538 1537 1537 1536 1536 1536 1536 1535 1535 1533 1532 1532 1532 1531 1531 1530 1529 1529 1528 1528 1527 1527 1526 1526 1526 1526 1526 1525 1525 1524
1529 1531 1532 1532 1533 1533 1534 1534 1535 1535 1535 1534 1535 1535 1534 1534 1533 1533 1533 1532 1532 1531 1530 1528 1528 1528 1528 1528 1527 1526 1525 1525 1525 1524 1524 1523 1523 1523 1523 1522 1522 1521 1521
1526 1527 1528 1529 1529 1530 1530 1531 1531 1531 1531 1531 1531 1531 1531 1530 1530 1529 1529 1528 1528 1528 1527 1526 1524 1524 1524 1524 1523 1523 1522 1522 1521 1521 1520 1520 1520 1519 1519 1518 1518 1517 1517
1522 1523 1524 1525 1526 1526 1527 1527 1527 1528 1527 1527 1527 1527 1527 1527 1526 1526 1525 1525 1524 1524 1523 1522 1521 1520 1520 1520 1520 1519 1518 1518 1518 1517 1517 1517 1516 1516 1515 1515 1514 1514 1513
1517 1519 1520 1521 1522 1522 1523 1523 1523 1523 1523 1523 1523 1523 1523 1523 1522 1522 1521 1521 1521 1520 1519 1518 1517 1516 1516 1516 1515 1515 1514 1514 1514 1514 1513 1513 1513 1512 1512 1511 1511 1510 1510
1513 1514 1515 1517 1517 1518 1518 1519 1519 1519 1519 1519 1519 1519 1519 1519 1518 1518 1518 1517 1517 1516 1515 1514 1513 1512 1512 1512 1512 1512 1511 1510 1509 1511 1510 1509 1509 1509 1508 1508 1507 1507 1507
1508 1509 1511 1512 1513 1513 1514 1514 1514 1514 1514 1514 1514 1514 1514 1514 1514 1514 1513 1513 1512 1512 1511 1510 1509 1508 1508 1508 1508 1508 1508 1507 1506 1507 1507 1506 1505 1505 1505 1504 1504 1504 1503
1503 1504 1506 1507 1508 1508 1509 1509 1510 1510 1510 1510 1510 1510 1510 1510 1510 1510 1509 1509 1508 1508 1507 1506 1506 1505 1505 1505 1505 1505 1504 1504 1504 1504 1504 1503 1502 1501 1501 1501 1501 1500 1500
1498 1499 1501 1502 1503 1503 1504 1504 1505 1505 1505 1505 1506 1507 1507 1507 1506 1506 1506 1505 1505 1504 1504 1503 1503 1503 1502 1502 1501 1501 1501 1501 1500 1500 1501 1500 1499 1499 1498 1498 1498 1497 1497
1493 1494 1496 1497 1498 1498 1499 1500 1500 1501 1501 1501 1502 1502 1503 1503 1503 1503 1503 1502 1501 1501 1501 1500 1500 1499 1499 1499 1498 1498 1498 1498 1497 1497 1497 1497 1497 1496 1496 1495 1495 1494 1493